Date String (YYYY-MM-DD hh:mm:ss) UTC,Instrument flags,absolute air pressure of the measurement (hPa),sample flow rate (lpm),inlet stack bypass flow (lpm),air temperature of the measurement (°C),ambient temperature measured by the external sensor (°C),aerosol sample conditioner tube jacket temperature (°C),OPC LED temperature (°C),internal box temperature (°C),relative humidity of the measurement (%),span deviation,mass concentration of particles derived from Lorenz-Mie calculation of OPC scattering (μg/m³),mass concentration of particles derived from Lorenz-Mie calculation of OPC scattering (μg/m³),mass concentration of particles derived from Lorenz-Mie calculation of OPC scattering (μg/m³)
DateTimeUTC,F1_M11,P_M11,Q1_M11,Q2_M11,T1_M11,T2_M11,T3_M11,T4_M11,T5_M11,U1_M11,ZSPAN_M11,X2_M11,X0_M11,X1_M11
2023-10-15 14:00:00,SystemResetWarning,0839.6,5.00,000.00,024.2,022.7,000.0,032.6,025.9,15.4,0000.0,0003.19,0003.90,0002.98
2023-10-15 14:01:00,SystemResetWarning,0839.5,5.00,000.00,024.2,022.7,000.0,032.6,025.9,15.5,0000.0,0003.17,0003.86,0002.95
2023-10-15 14:02:00,SystemResetWarning,0839.6,5.00,000.00,024.2,022.7,000.0,032.6,025.9,15.6,0000.0,0003.18,0003.87,0002.94
2023-10-15 14:03:00,SystemResetWarning,0839.6,5.00,000.00,024.2,022.7,000.0,032.6,025.9,15.7,0000.0,0003.17,0003.83,0002.96
2023-10-15 14:04:00,SystemResetWarning,0839.6,5.00,000.00,024.2,022.7,000.0,032.6,025.9,15.7,0000.0,0003.16,0003.77,0002.97
2023-10-15 14:05:00,SystemResetWarning,0839.7,5.00,000.00,024.2,022.7,000.0,032.6,025.9,15.5,0000.0,0003.17,0003.75,0002.99
2023-10-15 14:06:00,SystemResetWarning,0839.7,5.00,000.00,024.2,022.8,000.0,032.6,025.9,15.6,0000.0,0003.16,0003.71,0002.99
2023-10-15 14:07:00,SystemResetWarning,0839.7,5.00,000.00,024.2,022.8,000.0,032.6,025.9,15.6,0000.0,0003.16,0003.78,0002.99
2023-10-15 14:08:00,SystemResetWarning,0839.7,5.00,000.00,024.2,022.8,000.0,032.6,025.9,15.7,0000.0,0003.14,0003.79,0002.97
2023-10-15 14:09:00,SystemResetWarning,0839.7,5.00,000.00,024.2,022.8,000.0,032.6,026.0,15.7,0000.0,0003.15,0004.14,0002.94
2023-10-15 14:10:00,SystemResetWarning,0839.7,5.00,000.00,024.2,022.8,000.0,032.6,026.0,15.6,0000.0,0003.15,0004.32,0002.93
2023-10-15 14:11:00,SystemResetWarning,0839.8,5.01,000.00,024.2,022.9,000.0,032.6,026.0,15.5,0000.0,0003.16,0004.34,0002.97
2023-10-15 14:12:00,SystemResetWarning,0839.8,5.00,000.00,024.2,022.9,000.0,032.6,026.0,15.6,0000.0,0003.19,0004.42,0003.02
2023-10-15 14:13:00,SystemResetWarning,0839.8,5.00,000.00,024.2,022.9,000.0,032.6,026.0,15.8,0000.0,0003.21,0004.48,0003.07
2023-10-15 14:14:00,SystemResetWarning,0839.8,5.01,000.00,024.3,022.9,000.0,032.7,026.1,16.2,0000.0,0003.20,0004.54,0003.06
2023-10-15 14:15:00,SystemResetWarning,0839.8,5.00,000.00,024.3,023.0,000.0,032.7,026.1,15.9,0000.0,0003.22,0004.71,0003.05
2023-10-15 14:16:00,SystemResetWarning,0839.8,5.00,000.00,024.3,023.0,000.0,032.7,026.1,15.7,0000.0,0003.24,0004.84,0003.06
2023-10-15 14:17:00,SystemResetWarning,0839.8,5.01,000.00,024.3,023.0,000.0,032.7,026.1,15.5,0000.0,0003.27,0005.02,0003.08
2023-10-15 14:18:00,SystemResetWarning,0839.8,4.98,000.00,024.3,023.0,000.0,032.7,026.1,15.4,0000.0,0003.30,0005.07,0003.11
2023-10-15 14:19:00,SystemResetWarning,0839.8,4.99,000.00,024.3,023.1,000.0,032.7,026.1,15.8,0000.0,0003.33,0005.11,0003.13
2023-10-15 14:20:00,SystemResetWarning,0839.8,5.00,000.00,024.3,023.1,000.0,032.7,026.1,16.4,0000.0,0003.34,0004.89,0003.15
2023-10-15 14:21:00,SystemResetWarning,0839.8,5.01,000.00,024.4,023.1,000.0,032.7,026.1,16.8,0000.0,0003.34,0004.76,0003.15
2023-10-15 14:22:00,SystemResetWarning,0839.8,5.01,000.00,024.4,023.1,000.0,032.8,026.2,16.3,0000.0,0003.33,0005.06,0003.13
2023-10-15 14:23:00,SystemResetWarning,0839.8,5.00,000.00,024.4,023.1,000.0,032.8,026.2,16.2,0000.0,0003.32,0005.18,0003.09
2023-10-15 14:24:00,SystemResetWarning,0839.8,5.00,000.00,024.4,023.2,000.0,032.8,026.2,16.2,0000.0,0003.29,0005.16,0003.02
2023-10-15 14:25:00,SystemResetWarning,0839.8,5.00,000.00,024.4,023.2,000.0,032.8,026.2,15.9,0000.0,0003.30,0005.36,0003.02
2023-10-15 14:26:00,SystemResetWarning,0839.8,5.00,000.00,024.4,023.2,000.0,032.8,026.2,15.9,0000.0,0003.31,0006.06,0003.03
2023-10-15 14:27:00,SystemResetWarning,0839.8,5.00,000.00,024.5,023.2,000.0,032.8,026.3,15.9,0000.0,0003.33,0006.52,0003.04
2023-10-15 14:28:00,SystemResetWarning,0839.8,5.00,000.00,024.5,023.2,000.0,032.8,026.3,15.8,0000.0,0003.32,0006.38,0003.06
2023-10-15 14:29:00,SystemResetWarning,0839.9,5.00,000.00,024.5,023.3,000.0,032.8,026.3,15.8,0000.0,0003.30,0006.27,0003.05
2023-10-15 14:30:00,SystemResetWarning,0839.9,5.00,000.00,024.5,023.3,000.0,032.8,026.3,15.9,0000.0,0003.29,0006.22,0003.02
2023-10-15 14:31:00,SystemResetWarning,0839.9,5.00,000.00,024.5,023.3,000.0,032.8,026.3,15.9,0000.0,0003.32,0006.77,0003.02
2023-10-15 14:32:00,SystemResetWarning,0840.0,5.00,000.00,024.5,023.3,000.0,032.9,026.3,15.8,0000.0,0003.33,0007.46,0003.02
2023-10-15 14:33:00,SystemResetWarning,0840.0,5.00,000.00,024.5,023.3,000.0,032.9,026.3,16.0,0000.0,0003.33,0007.66,0003.04
2023-10-15 14:34:00,SystemResetWarning,0840.0,5.00,000.00,024.5,023.4,000.0,032.9,026.3,16.1,0000.0,0003.32,0008.21,0003.03
2023-10-15 14:35:00,SystemResetWarning,0840.1,5.00,000.00,024.6,023.4,000.0,032.9,026.4,17.4,0000.0,0003.31,0008.30,0003.02
2023-10-15 14:36:00,SystemResetWarning,0840.1,5.00,000.00,024.6,023.4,000.0,032.9,026.4,18.3,0000.0,0003.31,0008.24,0003.01
2023-10-15 14:37:00,SystemResetWarning,0840.1,5.00,000.00,024.6,023.4,000.0,032.9,026.4,18.3,0000.0,0003.29,0007.89,0002.99
2023-10-15 14:38:00,SystemResetWarning,0840.1,5.00,000.00,024.6,023.5,000.0,033.0,026.4,17.7,0000.0,0003.25,0007.55,0002.96
2023-10-15 14:39:00,SystemResetWarning,0840.1,5.00,000.00,024.6,023.5,000.0,033.0,026.4,17.9,0000.0,0003.23,0007.54,0002.93
2023-10-15 14:40:00,SystemResetWarning,0840.2,5.00,000.00,024.7,023.5,000.0,033.0,026.4,17.8,0000.0,0003.23,0007.55,0002.92
2023-10-15 14:41:00,SystemResetWarning,0840.2,5.00,000.00,024.7,023.5,000.0,033.0,026.5,17.9,0000.0,0003.25,0007.57,0002.95
2023-10-15 14:42:00,SystemResetWarning,0840.2,5.00,000.00,024.7,023.5,000.0,033.0,026.5,17.4,0000.0,0003.25,0007.50,0002.99
2023-10-15 14:43:00,SystemResetWarning,0840.2,5.00,000.00,024.7,023.5,000.0,033.0,026.5,17.4,0000.0,0003.24,0006.83,0003.02
2023-10-15 14:44:00,SystemResetWarning,0840.2,5.00,000.00,024.7,023.6,000.0,033.0,026.5,17.2,0000.0,0003.27,0006.05,0003.07
2023-10-15 14:45:00,SystemResetWarning,0840.2,5.00,000.00,024.7,023.6,000.0,033.1,026.5,17.3,0000.0,0003.32,0005.12,0003.13
2023-10-15 14:46:00,SystemResetWarning,0840.2,5.00,000.00,024.7,023.6,000.0,033.1,026.6,17.7,0000.0,0003.39,0005.35,0003.19
2023-10-15 14:47:00,SystemResetWarning,0840.3,5.00,000.00,024.8,023.6,000.0,033.1,026.6,17.6,0000.0,0003.45,0005.88,0003.25
2023-10-15 14:48:00,SystemResetWarning,0840.3,4.99,000.00,024.8,023.6,000.0,033.1,026.6,17.2,0000.0,0003.49,0005.86,0003.29
2023-10-15 14:49:00,SystemResetWarning,0840.3,5.00,000.00,024.8,023.6,000.0,033.1,026.6,16.9,0000.0,0003.54,0005.93,0003.32
2023-10-15 14:50:00,SystemResetWarning,0840.3,5.00,000.00,024.8,023.7,000.0,033.1,026.6,16.7,0000.0,0003.58,0006.28,0003.35
2023-10-15 14:51:00,SystemResetWarning,0840.3,5.00,000.00,024.8,023.7,000.0,033.2,026.6,16.6,0000.0,0003.66,0006.79,0003.38
2023-10-15 14:52:00,SystemResetWarning,0840.3,5.00,000.00,024.9,023.7,000.0,033.2,026.6,16.6,0000.0,0003.68,0006.89,0003.39
2023-10-15 14:53:00,SystemResetWarning,0840.3,5.00,000.00,024.9,023.7,000.0,033.2,026.7,16.8,0000.0,0003.70,0006.84,0003.40
2023-10-15 14:54:00,SystemResetWarning,0840.4,5.00,000.00,024.9,023.7,000.0,033.2,026.7,16.6,0000.0,0003.72,0006.86,0003.42
2023-10-15 14:55:00,SystemResetWarning,0840.3,5.00,000.00,024.9,023.7,000.0,033.2,026.7,16.4,0000.0,0003.72,0006.94,0003.43
2023-10-15 14:56:00,SystemResetWarning,0840.3,5.00,000.00,024.9,023.8,000.0,033.3,026.7,16.5,0000.0,0003.70,0007.03,0003.40
2023-10-15 14:57:00,SystemResetWarning,0840.4,5.00,000.00,024.9,023.8,000.0,033.3,026.7,16.8,0000.0,0003.64,0006.48,0003.35
2023-10-15 14:58:00,SystemResetWarning,0840.4,5.00,000.00,025.0,023.8,000.0,033.3,026.7,17.0,0000.0,0003.59,0005.95,0003.31
2023-10-15 14:59:00,SystemResetWarning,0840.4,5.00,000.00,025.0,023.8,000.0,033.3,026.7,17.0,0000.0,0003.56,0006.03,0003.29
